Weather History for Medford, OR

Change the Weather History Date:

Saturday, February 16, 2013

  Actual Average Record
Temperature  
Mean Temperature 47 °F 44 °F  
Max Temperature 63 °F 55 °F 70 °F (1957)
Min Temperature 30 °F 34 °F 14 °F (1956)
Degree Days  
Heating Degree Days 18 21  
Month to date heating degree days 373 347  
Since 1 July heating degree days 2792 2879  
Cooling Degree Days 0 0  
Month to date cooling degree days 0 0  
Year to date cooling degree days 0 0  
Moisture  
Dew Point 33 °F    
Average Humidity 63    
Maximum Humidity 92    
Minimum Humidity 34    
Precipitation  
Precipitation 0.00 in 0.07 in 1.03 in (2004)
Month to date precipitation 0.13 1.15  
Year to date precipitation 1.09 3.58  
Snow  
Snow 0.00 in 0.00 in - ()
Month to date snowfall 0.0 0.4  
Since 1 July snowfall 1.7 3.4  
Snow Depth 0.00 in    
Sea Level Pressure  
Sea Level Pressure 30.25 in    
Wind  
Wind Speed 4 mph (NNW)    
Max Wind Speed 22 mph    
Max Gust Speed 25 mph    
Visibility 10 miles    
Events      
T = Trace of Precipitation, MM = Missing Value Source: NWS Daily Summary

Daily Weather History Graph

Daily Weather History Graph

Search for Another Location

Airport:

Trip Planner

Search our weather history database for the weather conditions in past years. The results will help you decide how hot, cold, wet, or windy it might be!

Date:

Astronomy

Feb. 16, 2013 Rise Set
Actual Time 7:06 AM PST 5:45 PM PST
Civil Twilight 6:37 AM PST 6:14 PM PST
Nautical Twilight 6:04 AM PST 6:47 PM PST
Astronomical Twilight 5:32 AM PST 7:19 PM PST
Moon 10:13 AM PST (2/16) No Moon Set
Length of Visible Light 11h 36m
Length of Day
10h 39m
Waxing Crescent, 40% of the Moon is Illuminated
Feb 16
Waxing Crescent
Feb 17
First Quarter
Feb 25
Full
Mar 4
Last Quarter
Mar 11
New

Hourly Weather History & Observations

Time (PST) Temp. Windchill Dew Point Humidity Pressure Visibility Wind Dir Wind Speed Gust Speed Precip Events Conditions
12:53 AM 39.9 °F 37.8 °F 34.0 °F 79% 30.29 in 10.0 mi South 3.5 mph - N/A   Clear
1:53 AM 37.9 °F 35.5 °F 34.0 °F 86% 30.29 in 8.0 mi West 3.5 mph - N/A   Clear
2:53 AM 37.0 °F 34.5 °F 32.0 °F 82% 30.28 in 10.0 mi West 3.5 mph - N/A   Clear
3:53 AM 34.0 °F - 30.0 °F 85% 30.28 in 10.0 mi Calm Calm - N/A   Clear
4:53 AM 34.0 °F 31.0 °F 30.0 °F 85% 30.27 in 10.0 mi SSW 3.5 mph - N/A   Clear
5:53 AM 33.1 °F - 28.9 °F 85% 30.27 in 10.0 mi Calm Calm - N/A   Clear
6:53 AM 30.9 °F - 28.9 °F 92% 30.28 in 9.0 mi Calm Calm - N/A   Clear
7:53 AM 33.1 °F - 30.0 °F 89% 30.28 in 10.0 mi Calm Calm - N/A   Clear
8:53 AM 37.9 °F - 32.0 °F 79% 30.29 in 10.0 mi Calm Calm - N/A   Clear
9:53 AM 39.9 °F - 34.0 °F 79% 30.29 in 10.0 mi Calm Calm - N/A   Clear
10:53 AM 46.9 °F - 35.1 °F 63% 30.27 in 10.0 mi Calm Calm - N/A   Clear
11:53 AM 52.0 °F - 36.0 °F 54% 30.24 in 10.0 mi North 3.5 mph - N/A   Clear
12:53 PM 57.0 °F - 36.0 °F 45% 30.21 in 10.0 mi North 4.6 mph - N/A   Partly Cloudy
1:53 PM 60.1 °F - 37.0 °F 42% 30.17 in 10.0 mi Calm Calm - N/A   Partly Cloudy
2:53 PM 62.1 °F - 33.1 °F 34% 30.15 in 10.0 mi WNW 11.5 mph - 0.01 in   Clear
3:53 PM 63.0 °F - 34.0 °F 34% 30.14 in 10.0 mi WNW 9.2 mph - N/A   Scattered Clouds
4:53 PM 55.9 °F - 32.0 °F 40% 30.15 in 10.0 mi North 16.1 mph 23.0 mph N/A   Scattered Clouds
5:53 PM 46.9 °F - 33.1 °F 59% 30.21 in 10.0 mi NE 10.4 mph - N/A   Scattered Clouds
6:53 PM 44.1 °F 39.5 °F 34.0 °F 68% 30.24 in 10.0 mi NE 8.1 mph - N/A   Scattered Clouds
7:53 PM 42.1 °F 37.7 °F 32.0 °F 67% 30.25 in 10.0 mi NNE 6.9 mph - N/A   Clear
8:53 PM 41.0 °F - 32.0 °F 70% 30.25 in 10.0 mi Calm Calm - N/A   Clear
9:53 PM 42.1 °F - 32.0 °F 67% 30.27 in 10.0 mi Calm Calm - N/A   Mostly Cloudy
10:53 PM 41.0 °F 39.0 °F 33.1 °F 73% 30.27 in 10.0 mi East 3.5 mph - N/A   Overcast
11:53 PM 39.9 °F - 32.0 °F 73% 30.26 in 10.0 mi Calm Calm - N/A   Mostly Cloudy